Regional Weather Roundup
Issued by NWS

Home | Current Version | Previous Version | Graphics & Text | Print | Product List | Glossary On
Versions: 1 2 3 4 5 6 7 8 9 10 11 12 13 14 15 16 17 18 19 20 21 22 23 24 25 26 27 28 29 30 31 32 33 34 35 36 37 38 39 40 41 42 43 44 45 46 47 48 49 50
000
ASUS43 KIND 230709
RWRIN

WEATHER ROUNDUP FOR INDIANA
NATIONAL WEATHER SERVICE INDIANAPOLIS IN
300 AM EDT TUE MAY 23 2017

NOTE: "FAIR" INDICATES FEW OR NO CLOUDS BELOW 12,000 FEET WITH NO
SIGNIFICANT WEATHER AND/OR OBSTRUCTIONS TO VISIBILITY.

* - STATION DOES NOT REPORT WEATHER SUCH AS PRECIPITATION OR FOG.

+ - STATION NOT QUALITY CONTROLLED BY THE NATIONAL WEATHER SERVICE.
    USE DATA WITH CAUTION...ESPECIALLY DEWPOINT AND RELATIVE
    HUMIDITY OBSERVATIONS.

INZ001>003-010>013-019-020-230800-
NORTHWEST INDIANA

CITY           SKY/WX    TMP DP  RH WIND       PRES   REMARKS
GARY /AIRPORT/ CLOUDY    61  53  73 SW7       29.89F
KNOX *+        CLOUDY    59  45  58 SW6       29.91S
LA PORTE +     CLOUDY    59  52  76 SW7       29.90F
MICHIGAN CITY+ CLOUDY    61  50  67 SW10      29.89F
MONTICELLO +   CLOUDY    60  52  77 CALM      29.91F
RENSSELAER +   CLOUDY    59  54  82 CALM      29.91F
VALPARAISO     CLOUDY    61  53  75 SW9       29.90F

$$

LMZ046-743>745-230800-
SOUTHERN LAKE MICHIGAN

STATION/POSITION TIME  TEMP    WIND        PRES    WAVE
                       AIR SEA DIR/SP/G            HT
                 (UTC) (F)     (DEG/KT/KT) (MB)    (FT)
BURNS HARBOR     0640   61     220/ 12/ 18 1012.2F
MICHIGAN CITY    0640   61     190/ 16/ 20   N/A
5NW MICH CITY    0700   59 53  210/ 14/ 17   N/A     2

$$

INZ004-005-014>016-021>024-230800-
NORTH CENTRAL INDIANA

CITY           SKY/WX    TMP DP  RH WIND       PRES   REMARKS
GOSHEN         CLOUDY    60  49  66 S6        29.90F
LOGANSPORT +   CLOUDY    57  52  82 CALM      29.93S
PERU/GRISSOM   CLOUDY    59  51  74 S8        29.91F
ROCHESTER +    CLOUDY    63  52  67 CALM      29.91F
SOUTH BEND     CLOUDY    59  52  77 S7        29.90F
WARSAW +       CLOUDY    59  50  72 CALM      29.91F

$$

INZ006>009-017-018-025>027-230800-
NORTHEAST INDIANA

CITY           SKY/WX    TMP DP  RH WIND       PRES   REMARKS
ANGOLA *+      CLOUDY    61  50  67 SW3       29.92F
AUBURN +       PTCLDY    59  46  63 CALM      29.93F
FORT WAYNE     CLOUDY    57  49  74 S6        29.93F
HUNTINGTON +   CLOUDY    58  49  72 S5        29.92F
KENDALLVILLE + CLOUDY    59  49  70 W3        29.93S

$$

INZ028-029-035-036-043>045-051>053-230800-
WEST CENTRAL INDIANA

CITY           SKY/WX    TMP DP  RH WIND       PRES   REMARKS
CRAWFORDSVL +  CLOUDY    55  50  83 S3        29.92F
GREENCASTLE +  CLOUDY    57  46  67 CALM      29.93F
LAFAYETTE      CLOUDY    57  53  86 CALM      29.91F
TERRE HAUTE    MOCLDY    60  50  69 CALM      29.92F

$$

INZ030>032-037>040-046>048-054>057-064-065-230800-
CENTRAL INDIANA

CITY           SKY/WX    TMP DP  RH WIND       PRES   REMARKS
CP ATTERBURY + CLOUDY    52  50  93 CALM      29.94F
FISHERS *+     CLOUDY    57  52  82 S5        29.93F
FRANKFORT +    PTCLDY    61  52  73 S5        29.94F
GREENWOOD *+   CLOUDY    59  49  68 S3        29.95S
INDIANAPOLIS   CLOUDY    59  47  64 S3        29.93F
-EAGLE CREEK   CLOUDY    60  48  64 SE3       29.92F
KOKOMO +       CLOUDY    60  50  69 S7        29.93F
MARION +       PTCLDY    57  48  72 S6        29.94F HAZE
MT COMFORT *+  CLOUDY    57  48  72 S3        29.94F
SHELBYVILLE    CLOUDY    61  48  62 SE5       29.93F
ZIONSVILLE +   CLOUDY    57  50  78 S3        29.94F

$$

INZ033-034-041-042-049-050-058-059-230800-
EAST CENTRAL INDIANA

CITY           SKY/WX    TMP DP  RH WIND       PRES   REMARKS
MUNCIE         CLOUDY    61  47  59 S7        29.94F
RICHMOND +     PTCLDY    54  48  82 CALM      29.96F

$$

INZ060-061-067>069-081>083-085>088-230800-
SOUTHWEST INDIANA

CITY           SKY/WX    TMP DP  RH WIND       PRES   REMARKS
EVANSVILLE     CLOUDY    59  52  77 CALM      29.91F
HUNTINGBURG *+ MOCLDY    56  52  86 CALM      29.92F
WASHINGTON +   CLOUDY    58  49  73 CALM      29.92F

$$

INZ062-063-066-070>080-084-089>092-230800-
SOUTH CENTRAL AND SOUTHEAST INDIANA

CITY           SKY/WX    TMP DP  RH WIND       PRES   REMARKS
BEDFORD +      CLOUDY    55  48  76 CALM      29.92F
BLOOMINGTON    CLOUDY    57  48  72 SE5       29.93F
MADISON *+     CLOUDY    52  50  93 CALM      29.97F
NORTH VERNON + MOCLDY    52  48  87 CALM      29.95F
SEYMOUR +      MOCLDY    55  52  88 CALM      29.94F

$$





USA.gov is the U.S. government's official web portal to all federal, state and local government web resources and services.